Hourly Data Report for September 23, 2017

All times are specified in Local Standard Time (LST). Add 1 hour to adjust for Daylight Saving Time where and when it is observed.

ENNADAI LAKE (AUT)
NUNAVUT

61°07'55.000" N
100°53'02.000" W
353.10 m
2301102
71923
WJC

Download Data

Hourly Data (September 2017)
Hourly Data Report for September 23, 2017
Temp Definition
°C
Dew Point Temp Definition
°C
Rel Hum Definition
%
Wind Dir Definition
10's deg

Wind Spd Definition
km/h
Visibility Definition
km
Stn Press Definition
kPa
Hmdx Definition


Wind Chill Definition


Weather Definition


TIME
00:00 1.1 0.2 93 7 8   98.11     LegendNANA
01:00 1.5 -0.1 90 10 4   98.11     LegendNANA
02:00 1.1 0.2 93 7 6   98.07     LegendNANA
03:00 0.4 -1.0 90 5 9   98.06     LegendNANA
04:00 -0.2 -1.3 92 5 10   98.08   -4 LegendNANA
05:00 -0.2 -1.0 94 5 11   98.10   -4 LegendNANA
06:00 -0.3 -1.5 92 4 10   98.10   -4 LegendNANA
07:00 -0.7 -1.6 94 5 9   98.13   -4 LegendNANA
08:00 0.6 -1.3 87 6 6   98.17     LegendNANA
09:00 1.4 -2.1 78 3 7   98.16     LegendNANA
10:00 2.1 -3.3 67 1 5   98.17     LegendNANA
11:00 2.5 -3.7 63 3 5   98.15     LegendNANA
12:00 3.0 -3.2 64 33 9   98.14     LegendNANA
13:00 3.4 -4.3 57 3 12   98.08     LegendNANA
14:00 3.9 -4.3 55 33 8   98.07     LegendNANA
15:00 4.1 -4.2 55 33 5   98.09     LegendNANA
16:00 3.9 -4.1 56 8 2   98.10     LegendNANA
17:00 3.5 -4.1 58 8 3   98.08     LegendNANA
18:00 2.7 -4.3 60 11 4   98.08     LegendNANA
19:00 1.7 -4.0 66 12 7   98.09     LegendNANA
20:00 1.1 -3.7 70 12 9   98.09     LegendNANA
21:00 0.5 -2.7 79 12 11   98.06     LegendNANA
22:00 -0.4 -2.6 85 14 12   98.06   -4 LegendNANA
23:00 -0.5 -1.7 91 15 13   98.06   -5 LegendNANA

Notes on Data Quality.

Legend

  • E = Estimated
  • M = Missing
  • NA = Not Available
  • ‡ = Partner data that is not subject to review by the National Climate Archives
Date modified: